Regional Weather Roundup
Issued by NWS

Home | Current Version | Previous Version | Text Only | Print | Product List | Glossary On
Versions: 1 2 3 4 5 6 7 8 9 10 11 12 13 14 15 16 17 18 19 20 21 22 23 24 25 26 27 28 29 30 31 32 33 34 35 36 37 38 39 40 41 42 43 44 45 46 47 48 49 50
000
ASUS42 KFFC 181710
RWRGA
WEATHER ROUNDUP FOR GEORGIA
NATIONAL WEATHER SERVICE PEACHTREE CITY GA
1200 PM EST MON DEC 18 2017

NOTE: "FAIR" INDICATES FEW OR NO CLOUDS BELOW 12,000 FEET WITH NO
SIGNIFICANT WEATHER AND/OR OBSTRUCTIONS TO VISIBILITY.

* = USE WITH CAUTION. THE STATIONS MARKED WITH AN ASTERISK MAY NOT
REPORT WEATHER SUCH AS PRECIPITATION, FOG, OR THUNDER AND ARE NOT
QUALITY CONTROLLED BY NWS.

THE REMARK "TC" DENOTES TEMPERATURE READING IN DEGREES CELSIUS.

GAZ001>058-181800-
NORTH GEORGIA

CITY           SKY/WX    TMP DP  RH WIND       PRES   REMARKS
ATLANTA        PTSUNNY   57  54  89 CALM      30.20F FOG
ATHENS         MOSUNNY   60  52  74 VRB3      30.17F
CHAMBLEE       CLOUDY    52  50  93 SW3       30.19F FOG
PEACHTREE CITY MOSUNNY   58  53  84 CALM      30.21F
ROME           CLOUDY    49  49 100 CALM      30.20F FOG
WEST ATLANTA   CLOUDY    54  53  97 CALM      30.20F
GAINESVILLE    CLOUDY    57  53  86 W8        30.18F
CARTERSVILLE   CLOUDY    52  51  97 CALM      30.21F FOG


CITY           SKY/WX    TMP DP  RH WIND       PRES   REMARKS
DALTON*        CLOUDY    50  50 100 CALM      30.21F
LAWRENCEVILLE* CLOUDY    53  52  96 SW9       30.19F FOG
MARIETTA       CLOUDY    53  53 100 W3        30.18F FOG
KENNESAW*      CLOUDY    52  51  97 W7        30.21F FOG
CANTON*        CLOUDY    55  55 100 W8        30.20F
$$

GAZ059>098-102>109-181800-
CENTRAL GEORGIA

CITY           SKY/WX    TMP DP  RH WIND       PRES   REMARKS
AUGUSTA-BUSH   CLOUDY    65  55  70 VRB5      30.18F
AUGUSTA-DANIEL CLOUDY    65  54  67 SW7       30.19F
COLUMBUS       CLOUDY    61  58  90 CALM      30.22S FOG
MACON          CLOUDY    59  55  87 CALM      30.21F
ROBINS AFB     PTSUNNY   59  55  88 CALM      30.20F FOG


CITY           SKY/WX    TMP DP  RH WIND       PRES   REMARKS
LAGRANGE*      CLOUDY    62  60  94 NW6       30.22F
SYLVANIA*      CLOUDY    65  63  91 CALM      30.19F
MILLEDGEVILLE* CLOUDY    63  52  67 E3        30.20F
$$

GAZ099>101-110>166-181800-
SOUTH GEORGIA

CITY           SKY/WX    TMP DP  RH WIND       PRES   REMARKS
SAVANNAH       CLOUDY    67  64  90 SW3       30.19F
VALDOSTA       CLOUDY    73  69  87 VRB3      30.21F
ALMA           CLOUDY    69  65  86 SW5       30.20F FOG
ST SIMONS      CLOUDY    71  65  81 SW6       30.20F
FT STEWART     CLOUDY    68  63  83 SW9       30.18S
ALBANY         LGT RAIN  69  69 100 CALM      30.21F
HUNTER AFB     PTSUNNY   66  63  91 SW5       30.16F
MOODY AFB      CLOUDY    72  72 100 S7        30.20F
BRUNSWICK      CLOUDY    72  63  73 W7        30.21F


CITY           SKY/WX    TMP DP  RH WIND       PRES   REMARKS
BAINBRIDGE*    CLOUDY    73  73 100 W6        30.21F
MOULTRIE*      RAIN      70  70 100 SW6       30.22S
VIDALIA*       CLOUDY    66  64  94 CALM      30.20F
WAYCROSS*      CLOUDY    72  68  88 SW8       30.21F
DOUGLAS*       DRZL/FOG  64  64 100 CALM      30.22F VSB 1
$$




USA.gov is the U.S. government's official web portal to all federal, state and local government web resources and services.